TimeCET,TemperatureF,Dew PointF,Humidity,Sea Level PressureIn,VisibilityMPH,Wind Direction,Wind SpeedMPH,Gust SpeedMPH,PrecipitationIn,Events,Conditions,WindDirDegrees,DateUTC
12:55 AM,59.0,57.2,94,29.83,6.2,SE,9.2,-,N/A,,Partly Cloudy,130,2012-11-18 23:55:00
1:00 AM,59,57,92,29.83,7,SE,9.2,,,,Partly Cloudy,130,2012-11-19 00:00:00
1:55 AM,59.0,57.2,94,29.80,6.2,SE,9.2,-,N/A,Thunderstorm,Scattered Clouds,130,2012-11-19 00:55:00
2:03 AM,60.8,59.0,94,29.80,-9999.0,North,-9999.0,-,N/A,Rain-Thunderstorm,Light Thunderstorms and Rain,0,2012-11-19 01:03:00
2:55 AM,60.8,59.0,94,29.80,-9999.0,North,-9999.0,-,N/A,Thunderstorm,Thunderstorm,0,2012-11-19 01:55:00
3:55 AM,60.8,59.0,94,29.80,-9999.0,North,-9999.0,-,N/A,Thunderstorm,Thunderstorm,0,2012-11-19 02:55:00
4:55 AM,57.2,55.4,94,29.80,-9999.0,North,-9999.0,-,N/A,Rain-Thunderstorm,Light Thunderstorms and Rain,0,2012-11-19 03:55:00
5:55 AM,57.2,55.4,94,29.80,-9999.0,North,-9999.0,-,N/A,Rain-Thunderstorm,Light Thunderstorms and Rain,0,2012-11-19 04:55:00
6:55 AM,57.2,55.4,94,29.80,-9999.0,North,-9999.0,-,N/A,Rain-Thunderstorm,Light Thunderstorms and Rain,0,2012-11-19 05:55:00
7:00 AM,57,55,90,29.81,10,ESE,4.6,,,Rain-Thunderstorm,Thunderstorms and Rain,110,2012-11-19 06:00:00
7:55 AM,57.2,55.4,94,29.80,-9999.0,North,-9999.0,-,N/A,,Scattered Clouds,0,2012-11-19 06:55:00
8:55 AM,57.2,55.4,94,29.80,6.2,ENE,2.3,-,N/A,,Scattered Clouds,70,2012-11-19 07:55:00
9:55 AM,59.0,57.2,94,29.83,-9999.0,North,-9999.0,-,N/A,,Scattered Clouds,0,2012-11-19 08:55:00
10:55 AM,60.8,59.0,94,29.83,-9999.0,North,-9999.0,-,N/A,,Scattered Clouds,0,2012-11-19 09:55:00
11:55 AM,64.4,59.0,83,29.83,-9999.0,North,-9999.0,-,N/A,,Scattered Clouds,0,2012-11-19 10:55:00
12:55 PM,68.0,60.8,78,29.83,-9999.0,North,-9999.0,-,N/A,,Scattered Clouds,0,2012-11-19 11:55:00
1:00 PM,67,62,77,29.83,12,WSW,4.6,,,,Partly Cloudy,250,2012-11-19 12:00:00
1:55 PM,66.2,59.0,78,29.80,-9999.0,North,-9999.0,-,N/A,,Scattered Clouds,0,2012-11-19 12:55:00
2:55 PM,66.2,60.8,83,29.80,-9999.0,North,-9999.0,-,N/A,,Scattered Clouds,0,2012-11-19 13:55:00
3:55 PM,66.2,60.8,83,29.83,-9999.0,North,-9999.0,-,N/A,,Scattered Clouds,0,2012-11-19 14:55:00
5:55 PM,64.4,60.8,88,29.83,-9999.0,North,-9999.0,-,N/A,,Scattered Clouds,0,2012-11-19 16:55:00
6:55 PM,62.6,59.0,88,29.83,-9999.0,North,-9999.0,-,N/A,,Scattered Clouds,0,2012-11-19 17:55:00
7:00 PM,62,59,88,29.83,9,East,1.2,,,,Partly Cloudy,80,2012-11-19 18:00:00
7:55 PM,59.0,57.2,94,29.83,-9999.0,North,-9999.0,-,N/A,,Scattered Clouds,0,2012-11-19 18:55:00
8:55 PM,60.8,57.2,88,29.86,-9999.0,North,-9999.0,-,N/A,,Scattered Clouds,0,2012-11-19 19:55:00
9:55 PM,60.8,59.0,94,29.86,-9999.0,North,-9999.0,-,N/A,,Scattered Clouds,0,2012-11-19 20:55:00
10:55 PM,59.0,57.2,94,29.86,-9999.0,North,-9999.0,-,N/A,,Scattered Clouds,0,2012-11-19 21:55:00
11:55 PM,57.2,55.4,94,29.86,-9999.0,North,-9999.0,-,N/A,,Scattered Clouds,0,2012-11-19 22:55:00